• In Austria
  • List of Countries
  • For 7 days
  • Water Temperature
  • Satellite Maps
  • Weather Map
  • News
  • Weather Widgets
  • user-avatar
    Login

    Hourly Weather Varna

    Today, 25 February, Sunday

    Time Temperature Precipitation Wind Pressure Humidity
    00:00 -5°C° 0.1 mm 8 mps 744 mmHg 89%
    01:00 -6°C° 0.1 mm 8 mps 744 mmHg 88%
    02:00 -7°C° 0.1 mm 8 mps 744 mmHg 88%
    03:00 -7°C° 0 mm 8 mps 744 mmHg 86%
    04:00 -8°C° 0 mm 8 mps 745 mmHg 84%
    05:00 -10°C° 0 mm 8 mps 745 mmHg 83%
    06:00 -10°C° 0 mm 8 mps 745 mmHg 81%
    07:00 -9°C° 0 mm 7 mps 745 mmHg 79%
    08:00 -9°C° 0 mm 7 mps 746 mmHg 78%
    09:00 -8°C° 0 mm 7 mps 746 mmHg 75%
    10:00 -8°C° 0 mm 6 mps 746 mmHg 72%
    11:00 -6°C° 0 mm 6 mps 747 mmHg 68%
    12:00 -5°C° 0 mm 6 mps 746 mmHg 68%
    13:00 -4°C° 0 mm 6 mps 746 mmHg 68%
    14:00 -4°C° 0 mm 6 mps 746 mmHg 68%
    15:00 -4°C° 0 mm 6 mps 746 mmHg 70%
    16:00 -4°C° 0 mm 6 mps 747 mmHg 72%
    17:00 -5°C° 0 mm 6 mps 747 mmHg 74%
    18:00 -5°C° 0 mm 6 mps 747 mmHg 76%
    19:00 -5°C° 0 mm 6 mps 747 mmHg 77%
    20:00 -5°C° 0 mm 6 mps 747 mmHg 78%
    21:00 -6°C° 0 mm 7 mps 747 mmHg 79%
    22:00 -7°C° 0 mm 7 mps 747 mmHg 79%
    23:00 -7°C° 0 mm 7 mps 747 mmHg 80%

    Tomorrow, 26 February, Monday

    Time Temperature Precipitation Wind Pressure Humidity
    00:00 -7°C° 0.2 mm 8 mps 747 mmHg 82%
    01:00 -7°C° 0.2 mm 8 mps 747 mmHg 83%
    02:00 -8°C° 0.2 mm 9 mps 746 mmHg 85%
    03:00 -8°C° 0.5 mm 9 mps 746 mmHg 86%
    04:00 -8°C° 0.5 mm 9 mps 746 mmHg 87%
    05:00 -8°C° 0.5 mm 10 mps 745 mmHg 88%
    06:00 -8°C° 0.5 mm 10 mps 745 mmHg 88%
    07:00 -8°C° 0.5 mm 11 mps 745 mmHg 89%
    08:00 -8°C° 0.5 mm 11 mps 745 mmHg 89%
    09:00 -8°C° 0.7 mm 11 mps 745 mmHg 89%
    10:00 -7°C° 0.7 mm 12 mps 744 mmHg 90%
    11:00 -7°C° 0.7 mm 12 mps 744 mmHg 90%
    12:00 -7°C° 0.9 mm 12 mps 743 mmHg 90%
    13:00 -7°C° 0.9 mm 13 mps 743 mmHg 90%
    14:00 -7°C° 0.9 mm 13 mps 742 mmHg 91%
    15:00 -7°C° 0.9 mm 13 mps 741 mmHg 91%
    16:00 -7°C° 0.9 mm 13 mps 741 mmHg 91%
    17:00 -8°C° 0.9 mm 14 mps 740 mmHg 92%
    18:00 -8°C° 1.4 mm 14 mps 740 mmHg 92%
    19:00 -8°C° 1.4 mm 14 mps 739 mmHg 91%
    20:00 -8°C° 1.4 mm 14 mps 739 mmHg 91%
    21:00 -8°C° 1.9 mm 14 mps 739 mmHg 92%
    22:00 -7°C° 1.9 mm 13 mps 738 mmHg 93%
    23:00 -7°C° 1.9 mm 13 mps 738 mmHg 94%

    Day after tomorrow, 27 February, Tuesday

    Time Temperature Precipitation Wind Pressure Humidity
    00:00 -9°C° 1.2 mm 13 mps 738 mmHg 93%
    01:00 -9°C° 1.2 mm 13 mps 738 mmHg 92%
    02:00 -10°C° 1.2 mm 14 mps 737 mmHg 92%
    03:00 -10°C° 0.4 mm 14 mps 737 mmHg 92%
    04:00 -11°C° 0.4 mm 14 mps 737 mmHg 92%
    05:00 -11°C° 0.4 mm 14 mps 737 mmHg 92%
    06:00 -12°C° 0.5 mm 13 mps 738 mmHg 92%
    07:00 -13°C° 0.5 mm 12 mps 739 mmHg 92%
    08:00 -14°C° 0.5 mm 11 mps 739 mmHg 92%
    09:00 -14°C° 0.3 mm 10 mps 740 mmHg 92%
    10:00 -14°C° 0.3 mm 9 mps 741 mmHg 92%
    11:00 -13°C° 0.3 mm 8 mps 742 mmHg 92%
    12:00 -12°C° 0.1 mm 8 mps 742 mmHg 92%
    13:00 -12°C° 0.1 mm 7 mps 743 mmHg 91%
    14:00 -12°C° 0.1 mm 7 mps 743 mmHg 91%
    15:00 -11°C° 0 mm 6 mps 744 mmHg 91%
    16:00 -11°C° 0 mm 5 mps 744 mmHg 91%
    17:00 -10°C° 0 mm 4 mps 745 mmHg 91%
    18:00 -11°C° 0 mm 4 mps 745 mmHg 92%
    19:00 -12°C° 0 mm 4 mps 746 mmHg 93%
    20:00 -14°C° 0 mm 4 mps 746 mmHg 94%
    21:00 -14°C° 0 mm 4 mps 746 mmHg 94%
    22:00 -14°C° 0 mm 4 mps 747 mmHg 94%
    23:00 -13°C° 0 mm 3 mps 747 mmHg 94%

    28 February, Wednesday

    Time Temperature Precipitation Wind Pressure Humidity
    00:00 -14°C° 0 mm 3 mps 747 mmHg 94%
    01:00 -15°C° 0 mm 3 mps 747 mmHg 94%
    02:00 -15°C° 0 mm 3 mps 747 mmHg 94%
    03:00 -16°C° 0 mm 3 mps 747 mmHg 94%
    04:00 -16°C° 0 mm 3 mps 747 mmHg 94%
    05:00 -16°C° 0 mm 3 mps 747 mmHg 93%
    06:00 -16°C° 0.1 mm 4 mps 747 mmHg 92%
    07:00 -16°C° 0.1 mm 4 mps 747 mmHg 91%
    08:00 -15°C° 0.1 mm 4 mps 748 mmHg 91%
    09:00 -14°C° 0.5 mm 5 mps 747 mmHg 92%
    10:00 -13°C° 0.5 mm 5 mps 747 mmHg 93%
    11:00 -12°C° 0.5 mm 6 mps 747 mmHg 94%
    12:00 -13°C° 0.8 mm 7 mps 746 mmHg 94%
    13:00 -12°C° 0.8 mm 7 mps 746 mmHg 94%
    14:00 -12°C° 0.8 mm 8 mps 745 mmHg 95%
    15:00 -12°C° 0.9 mm 8 mps 745 mmHg 95%
    16:00 -12°C° 0.9 mm 8 mps 745 mmHg 95%
    17:00 -12°C° 0.9 mm 8 mps 745 mmHg 95%
    18:00 -12°C° 0.9 mm 9 mps 746 mmHg 95%
    19:00 -12°C° 0.9 mm 9 mps 746 mmHg 94%
    20:00 -14°C° 0.9 mm 9 mps 747 mmHg 94%
    21:00 -14°C° 0.4 mm 9 mps 747 mmHg 94%
    22:00 -14°C° 0.4 mm 9 mps 748 mmHg 94%
    23:00 -14°C° 0.4 mm 9 mps 748 mmHg 93%

    1 March, Thursday

    Time Temperature Precipitation Wind Pressure Humidity
    00:00 -14°C° 0.2 mm 9 mps 748 mmHg 93%
    01:00 -15°C° 0.2 mm 8 mps 749 mmHg 93%
    02:00 -15°C° 0.2 mm 8 mps 749 mmHg 93%
    03:00 -15°C° 0.1 mm 7 mps 750 mmHg 93%
    04:00 -17°C° 0.1 mm 7 mps 750 mmHg 94%
    05:00 -17°C° 0.1 mm 6 mps 750 mmHg 94%
    06:00 -17°C° 0 mm 5 mps 751 mmHg 94%
    07:00 -17°C° 0 mm 5 mps 751 mmHg 94%
    08:00 -16°C° 0 mm 4 mps 751 mmHg 94%
    09:00 -14°C° 0 mm 4 mps 751 mmHg 92%
    10:00 -10°C° 0 mm 3 mps 751 mmHg 90%
    11:00 -8°C° 0 mm 3 mps 751 mmHg 88%
    12:00 -7°C° 0 mm 3 mps 751 mmHg 87%
    13:00 -6°C° 0 mm 3 mps 750 mmHg 85%
    14:00 -5°C° 0 mm 2 mps 750 mmHg 83%
    15:00 -5°C° 0 mm 2 mps 750 mmHg 84%
    16:00 -5°C° 0 mm 2 mps 750 mmHg 86%
    17:00 -5°C° 0 mm 2 mps 749 mmHg 87%
    18:00 -7°C° 0 mm 2 mps 750 mmHg 87%
    19:00 -8°C° 0 mm 2 mps 750 mmHg 87%
    20:00 -9°C° 0 mm 2 mps 750 mmHg 87%
    21:00 -9°C° 0 mm 2 mps 750 mmHg 86%
    22:00 -9°C° 0 mm 2 mps 750 mmHg 85%
    23:00 -9°C° 0 mm 2 mps 749 mmHg 85%

    2 March, Friday

    Time Temperature Precipitation Wind Pressure Humidity
    00:00 -10°C° 0 mm 2 mps 749 mmHg 84%
    01:00 -10°C° 0 mm 2 mps 749 mmHg 84%
    02:00 -10°C° 0 mm 2 mps 749 mmHg 84%
    03:00 -10°C° 0 mm 2 mps 748 mmHg 84%
    04:00 -10°C° 0 mm 2 mps 748 mmHg 83%
    05:00 -9°C° 0 mm 1 mps 748 mmHg 83%
    06:00 -8°C° 0 mm 1 mps 748 mmHg 84%
    07:00 -7°C° 0 mm 1 mps 748 mmHg 86%
    08:00 -6°C° 0 mm 1 mps 748 mmHg 87%
    09:00 -4°C° 0 mm 1 mps 747 mmHg 88%
    10:00 -2°C° 0 mm 1 mps 747 mmHg 90%
    11:00 0°C° 0 mm 1 mps 747 mmHg 91%
    12:00 0°C° 0 mm 1 mps 747 mmHg 93%
    13:00 0°C° 0 mm 1 mps 746 mmHg 96%
    14:00 +1°C° 0 mm 1 mps 746 mmHg 98%
    15:00 +1°C° 0 mm 1 mps 746 mmHg 97%
    16:00 +1°C° 0 mm 1 mps 746 mmHg 95%
    17:00 +1°C° 0 mm 1 mps 745 mmHg 94%
    18:00 -2°C° 0 mm 2 mps 745 mmHg 93%
    19:00 -2°C° 0 mm 2 mps 745 mmHg 93%
    20:00 -2°C° 0 mm 2 mps 745 mmHg 92%
    21:00 -2°C° 0 mm 2 mps 745 mmHg 92%
    22:00 -2°C° 0 mm 2 mps 745 mmHg 93%
    23:00 -2°C° 0 mm 2 mps 745 mmHg 93%
    Show more